FW3318 Weather Reports


time (UTC)temp
F
wind
direction
speed
knots
gust
knots
rain 1hr
in
rain 24hr
in
rain mn
in
humidity
%
barometer
mb
20260507224548 47 92 2.6 5.2 0.00 0.00 0.00 55 1016.0
20260507224045 47 339 0.9 5.2 0.00 0.00 0.00 57 1016.0
20260507223546 47 322 1.7 6.1 0.00 0.00 0.00 56 1015.9
20260507223045 47 312 2.6 8.7 0.00 0.00 0.00 55 1016.0
20260507222546 47 103 0.9 7.0 0.00 0.00 0.00 54 1016.0
20260507222045 47 273 1.7 3.5 0.00 0.00 0.00 55 1016.0
20260507221545 47 285 1.7 3.5 0.00 0.00 0.00 55 1016.0
20260507221049 47 45 0.9 5.2 0.00 0.00 0.00 57 1016.2
20260507220544 47 25 2.6 5.2 0.00 0.00 0.00 55 1016.2
20260507220043 47 74 2.6 5.2 0.00 0.00 0.00 55 1016.2
20260507215544 47 56 1.7 7.0 0.00 0.00 0.00 56 1016.1
20260507215044 47 355 2.6 7.0 0.00 0.00 0.00 55 1016.2
20260507214548 47 50 0.9 6.1 0.00 0.00 0.00 56 1016.1
20260507214042 47 80 2.6 6.1 0.00 0.00 0.00 56 1016.2
20260507213542 47 89 2.6 5.2 0.00 0.00 0.00 56 1016.1
20260507213041 46 26 1.7 5.2 0.00 0.00 0.00 57 1016.2
20260507212540 46 107 2.6 5.2 0.00 0.00 0.00 57 1016.2
20260507212040 46 5 0.9 4.3 0.00 0.00 0.00 57 1016.3
20260507211543 46 26 0.9 4.3 0.00 0.00 0.00 57 1016.3
20260507211038 46 11 1.7 4.3 0.00 0.00 0.00 58 1016.3
20260507210538 46 324 1.7 4.3 0.00 0.00 0.00 57 1016.3
20260507210038 46 94 2.6 5.2 0.00 0.00 0.00 56 1016.3
20260507205536 46 92 0.0 5.2 0.00 0.00 0.00 58 1016.4
20260507205040 45 115 0.9 2.6 0.00 0.00 0.00 56 1016.4
20260507204538 45 117 0.9 4.3 0.00 0.00 0.00 56 1016.4
20260507204035 45 76 0.9 4.3 0.00 0.00 0.00 58 1016.4
20260507203535 45 32 0.9 2.6 0.00 0.00 0.00 58 1016.5
20260507203037 45 247 0.9 2.6 0.00 0.00 0.00 58 1016.4
20260507202535 45 297 0.9 2.6 0.00 0.00 0.00 58 1016.5
20260507202035 45 18 0.0 7.0 0.00 0.00 0.00 58 1016.5
20260507201535 45 5 0.9 7.0 0.00 0.00 0.00 59 1016.5
20260507201035 45 63 0.9 5.2 0.00 0.00 0.00 59 1016.5
20260507200535 45 21 2.6 6.1 0.00 0.00 0.00 58 1016.4
20260507200034 45 11 0.9 4.3 0.00 0.00 0.00 58 1016.3
20260507195533 45 63 0.9 5.2 0.00 0.00 0.00 59 1016.4
20260507195033 45 288 1.7 5.2 0.00 0.00 0.00 58 1016.4
20260507194534 44 78 0.9 5.2 0.00 0.00 0.00 62 1016.4
20260507194032 45 275 2.6 5.2 0.00 0.00 0.00 59 1016.5
20260507193534 45 22 1.7 5.2 0.00 0.00 0.00 61 1016.5
20260507193035 45 161 1.7 5.2 0.00 0.00 0.00 59 1016.6
20260507192531 44 5 0.9 6.1 0.00 0.00 0.00 60 1016.7
20260507192029 44 65 3.5 6.1 0.00 0.00 0.00 59 1016.7
20260507191529 44 92 1.7 4.3 0.00 0.00 0.00 61 1016.6
20260507191027 44 97 1.7 4.3 0.00 0.00 0.00 61 1016.8
20260507190526 44 88 1.7 3.5 0.00 0.00 0.00 64 1016.7
20260507190027 43 69 0.9 3.5 0.00 0.00 0.00 64 1016.7
20260507185525 43 32 0.9 2.6 0.00 0.00 0.00 63 1016.7
20260507185025 43 333 0.9 3.5 0.00 0.00 0.00 63 1016.7
20260507184526 43 310 1.7 3.5 0.00 0.00 0.00 62 1016.7
20260507184026 43 306 1.7 3.5 0.00 0.00 0.00 62 1016.9
20260507183529 43 40 1.7 4.3 0.00 0.00 0.00 62 1016.9
20260507183039 43 81 1.7 4.3 0.00 0.00 0.00 61 1016.9
20260507182526 43 88 0.9 3.5 0.00 0.00 0.00 61 1017.0
20260507182025 43 84 0.9 4.3 0.00 0.00 0.00 62 1017.0
20260507181524 43 343 0.9 2.6 0.00 0.00 0.00 63 1017.0
20260507181025 43 13 0.9 4.3 0.00 0.00 0.00 63 1017.0
20260507180523 43 66 1.7 4.3 0.00 0.00 0.00 63 1017.2
20260507180025 43 100 1.7 5.2 0.00 0.00 0.00 64 1017.1
20260507175520 42 88 1.7 3.5 0.00 0.00 0.00 64 1017.1
20260507175020 42 108 1.7 3.5 0.00 0.00 0.00 65 1017.1
20260507174519 41 262 1.7 3.5 0.00 0.00 0.00 66 1017.2
20260507174016 41 153 0.9 5.2 0.00 0.00 0.00 68 1017.2
20260507173514 41 97 2.6 3.5 0.00 0.00 0.00 69 1017.4
20260507173014 40 76 0.9 3.5 0.00 0.00 0.00 69 1017.3
20260507172514 40 61 0.9 5.2 0.00 0.00 0.00 70 1017.3
20260507172013 40 55 0.9 4.3 0.00 0.00 0.00 71 1017.3
20260507171510 39 59 1.7 3.5 0.00 0.00 0.00 72 1017.3
20260507171009 39 36 0.9 2.6 0.00 0.00 0.00 74 1017.4
20260507170511 39 64 0.9 2.6 0.00 0.00 0.00 74 1017.3
20260507170005 39 76 0.9 2.6 0.00 0.00 0.00 73 1017.3
20260507165504 39 76 0.9 2.6 0.00 0.00 0.00 74 1017.2
20260507165103 38 76 0.9 3.5 0.00 0.00 0.00 74 1017.3
20260507164502 38 89 0.9 3.5 0.00 0.00 0.00 74 1017.4
20260507164000 38 111 0.9 3.5 0.00 0.00 0.00 75 1017.4
20260507163602 38 111 0.0 3.5 0.00 0.00 0.00 75 1017.4
20260507163101 38 42 0.9 3.5 0.00 0.00 0.00 75 1017.5
20260507162558 38 42 1.7 3.5 0.00 0.00 0.00 75 1017.5
20260507162056 38 302 1.7 5.2 0.00 0.00 0.00 77 1017.4
20260507161601 37 99 0.9 5.2 0.00 0.00 0.00 78 1017.4
20260507161054 36 62 0.9 3.5 0.00 0.00 0.00 79 1017.3
20260507160554 35 35 0.9 3.5 0.00 0.00 0.00 81 1017.2
20260507160054 34 22 1.7 3.5 0.00 0.00 0.00 82 1017.2
20260507155551 33 83 0.0 0.0 0.00 0.00 0.00 83 1017.3
20260507155050 33 83 0.0 1.7 0.00 0.00 0.00 83 1017.2
20260507154550 33 83 0.0 1.7 0.00 0.00 0.00 83 1017.3
20260507154050 33 84 0.0 1.7 0.00 0.00 0.00 83 1017.2
20260507153548 32 84 0.0 0.9 0.00 0.00 0.00 84 1017.3
20260507153058 32 84 0.0 0.9 0.00 0.00 0.00 84 1017.2
20260507152548 32 84 0.0 1.7 0.00 0.00 0.00 85 1017.1
20260507152048 31 84 0.0 1.7 0.00 0.00 0.00 86 1017.1
20260507151549 31 85 0.0 1.7 0.00 0.00 0.00 86 1017.1
20260507151045 31 84 0.0 1.7 0.00 0.00 0.00 86 1016.9
20260507150544 31 87 0.0 0.0 0.00 0.00 0.00 86 1017.0
20260507150044 31 87 0.0 0.0 0.00 0.00 0.00 86 1017.1
20260507145544 31 87 0.0 0.0 0.00 0.00 0.00 86 1017.1
20260507145043 31 87 0.0 0.0 0.00 0.00 0.00 85 1017.1
20260507144542 31 87 0.0 0.0 0.00 0.00 0.00 85 1017.1
20260507144042 31 87 0.0 0.0 0.00 0.00 0.00 85 1017.2
20260507143541 31 87 0.0 0.0 0.00 0.00 0.00 85 1017.2
20260507143048 31 87 0.0 0.0 0.00 0.00 0.00 85 1017.2
20260507142541 31 87 0.0 0.0 0.00 0.00 0.00 85 1017.3
20260507142040 31 87 0.0 0.0 0.00 0.00 0.00 85 1017.3
20260507141544 31 87 0.0 0.0 0.00 0.00 0.00 85 1017.2
20260507141040 31 87 0.0 0.0 0.00 0.00 0.00 84 1017.3
20260507140541 31 87 0.0 0.0 0.00 0.00 0.00 84 1017.3
20260507140038 31 87 0.0 0.0 0.00 0.00 0.00 84 1017.2
20260507135538 31 87 0.0 0.0 0.00 0.00 0.00 84 1017.2
20260507135037 31 87 0.0 0.0 0.00 0.00 0.00 84 1017.4
20260507134537 31 87 0.0 0.0 0.00 0.00 0.00 84 1017.3
20260507134036 31 87 0.0 0.0 0.00 0.00 0.00 85 1017.4
20260507133536 31 87 0.0 0.0 0.00 0.00 0.00 84 1017.3
20260507133036 31 87 0.0 0.0 0.00 0.00 0.00 84 1017.3
20260507132534 31 87 0.0 0.0 0.00 0.00 0.00 85 1017.1
20260507132033 31 87 0.0 0.0 0.00 0.00 0.00 85 1017.2
20260507131535 31 87 0.0 0.0 0.00 0.00 0.00 84 1017.1
20260507131031 31 87 0.0 0.0 0.00 0.00 0.00 84 1017.0
20260507130529 32 87 0.0 0.0 0.00 0.00 0.00 84 1017.0
20260507130029 32 87 0.0 0.0 0.00 0.00 0.00 84 1017.0
20260507125528 32 87 0.0 0.0 0.00 0.00 0.00 84 1017.1
20260507125027 32 87 0.0 0.0 0.00 0.00 0.00 84 1017.1
20260507124544 32 87 0.0 0.0 0.00 0.00 0.00 84 1017.1
20260507124026 32 87 0.0 0.0 0.00 0.00 0.00 84 1017.1
20260507123526 32 87 0.0 0.0 0.00 0.00 0.00 84 1017.2
20260507123028 32 87 0.0 0.0 0.00 0.00 0.00 84 1017.1
20260507122525 32 87 0.0 0.0 0.00 0.00 0.00 85 1017.0
20260507122025 32 87 0.0 0.0 0.00 0.00 0.00 85 1016.9
20260507121537 32 87 0.0 0.0 0.00 0.00 0.00 85 1016.9
20260507121025 32 87 0.0 0.0 0.00 0.00 0.00 85 1017.0
20260507120527 32 87 0.0 0.0 0.00 0.00 0.00 85 1016.9
20260507120023 32 87 0.0 0.0 0.00 0.00 0.00 85 1016.9
20260507115523 32 87 0.0 0.0 0.00 0.00 0.00 85 1016.9
20260507115026 32 87 0.0 0.0 0.00 0.00 0.00 85 1016.9
20260507114525 32 87 0.0 0.0 0.00 0.00 0.00 85 1016.9
20260507114021 32 87 0.0 0.0 0.00 0.00 0.00 84 1016.8
20260507113521 32 87 0.0 0.0 0.00 0.00 0.00 84 1016.8
20260507113023 32 87 0.0 0.0 0.00 0.00 0.00 84 1016.8
20260507112520 32 87 0.0 0.0 0.00 0.00 0.00 84 1016.8
20260507112020 32 87 0.0 0.0 0.00 0.00 0.00 84 1016.8
20260507111519 32 87 0.0 0.0 0.00 0.00 0.00 84 1016.7
20260507111018 33 87 0.0 0.0 0.00 0.00 0.00 84 1016.5
20260507110517 33 87 0.0 0.0 0.00 0.00 0.00 83 1016.7
20260507110028 33 87 0.0 0.0 0.00 0.00 0.00 83 1016.7
20260507105516 33 87 0.0 0.0 0.00 0.00 0.00 83 1016.6
20260507105016 33 87 0.0 0.0 0.00 0.00 0.00 83 1016.8
20260507104516 33 87 0.0 0.0 0.00 0.00 0.00 82 1016.8
20260507104020 33 87 0.0 0.0 0.00 0.00 0.00 82 1016.8
20260507103515 33 87 0.0 0.0 0.00 0.00 0.00 82 1016.8
20260507103014 33 87 0.0 0.0 0.00 0.00 0.00 81 1016.7
20260507102514 33 87 0.0 0.0 0.00 0.00 0.00 81 1016.8
20260507102013 33 87 0.0 0.0 0.00 0.00 0.00 80 1016.6
20260507101512 33 87 0.0 0.0 0.00 0.00 0.00 80 1016.4
20260507101011 34 87 0.0 0.0 0.00 0.00 0.00 80 1016.5
20260507100510 34 87 0.0 0.0 0.00 0.00 0.00 79 1016.5
20260507100018 34 87 0.0 0.0 0.00 0.00 0.00 79 1016.5
20260507095510 34 87 0.0 0.0 0.00 0.00 0.00 79 1016.4
20260507095009 34 87 0.0 0.0 0.00 0.00 0.00 79 1016.4
20260507094508 34 87 0.0 0.0 0.00 0.00 0.00 79 1016.4
20260507094008 34 87 0.0 0.0 0.00 0.00 0.00 79 1016.5
20260507093511 35 86 0.0 0.0 0.00 0.00 0.00 79 1016.4
20260507093006 35 87 0.0 0.0 0.00 0.00 0.00 78 1016.4
20260507092506 35 87 0.0 1.7 0.00 0.00 0.00 78 1016.3
20260507092004 35 87 0.0 1.7 0.00 0.00 0.00 78 1016.2
20260507091505 35 87 0.9 2.6 0.00 0.00 0.00 78 1016.2
20260507091006 35 86 0.9 2.6 0.00 0.00 0.00 78 1016.2
20260507090507 35 87 0.0 1.7 0.00 0.00 0.00 77 1016.0
20260507090006 35 87 0.0 1.7 0.00 0.00 0.00 77 1016.0
20260507085501 35 216 0.0 1.7 0.00 0.00 0.00 77 1015.9
20260507085100 35 216 0.0 1.7 0.00 0.00 0.00 77 1016.0
20260507084600 35 217 0.0 0.0 0.00 0.00 0.00 77 1016.0
20260507084059 35 217 0.0 0.0 0.00 0.00 0.00 77 1015.8
20260507083558 35 217 0.0 0.0 0.00 0.00 0.00 76 1015.8
20260507083058 35 217 0.0 0.0 0.00 0.00 0.00 76 1015.8
20260507082557 35 217 0.0 0.0 0.00 0.00 0.00 75 1015.9
20260507082057 35 217 0.0 0.0 0.00 0.00 0.00 75 1015.8
20260507081556 35 217 0.0 0.0 0.00 0.00 0.00 75 1015.8
20260507081055 36 217 0.0 0.0 0.00 0.00 0.00 74 1015.8
20260507080555 36 217 0.0 0.0 0.00 0.00 0.00 73 1015.8
20260507080059 36 217 0.0 0.0 0.00 0.00 0.00 73 1015.8
20260507075553 36 217 0.0 0.0 0.00 0.00 0.00 73 1015.7
20260507075056 36 217 0.0 0.0 0.00 0.00 0.00 72 1015.7
20260507074606 36 217 0.0 0.0 0.00 0.00 0.00 72 1015.7
20260507074052 36 217 0.0 0.0 0.00 0.00 0.00 72 1015.7
20260507073555 36 217 0.0 0.0 0.00 0.00 0.00 71 1015.6
20260507073053 37 217 0.0 0.0 0.00 0.00 0.00 71 1015.6
20260507072552 37 217 0.0 0.0 0.00 0.00 0.00 71 1015.7
20260507072051 37 217 0.0 0.0 0.00 0.00 0.00 71 1015.6
20260507071651 37 217 0.0 0.0 0.00 0.00 0.00 71 1015.6
20260507071051 37 217 0.0 1.7 0.00 0.00 0.00 70 1015.6
20260507070550 37 217 0.0 1.7 0.00 0.00 0.00 70 1015.6
20260507070106 37 217 0.0 1.7 0.00 0.00 0.00 71 1015.5
20260507065551 37 211 0.0 1.7 0.00 0.00 0.00 70 1015.4
20260507065049 37 211 0.0 1.7 0.00 0.00 0.00 69 1015.5
20260507064549 37 211 0.0 3.5 0.00 0.00 0.00 69 1015.4
20260507064049 37 211 0.9 3.5 0.00 0.00 0.00 69 1015.3
20260507063548 37 197 0.0 0.0 0.00 0.00 0.00 68 1015.4
20260507063056 37 111 0.0 0.0 0.00 0.00 0.00 68 1015.2
20260507062548 38 111 0.0 0.0 0.00 0.00 0.00 67 1015.2
20260507062048 38 111 0.0 0.0 0.00 0.00 0.00 66 1015.2
20260507061549 38 111 0.0 0.0 0.00 0.00 0.00 65 1015.2
20260507061048 38 111 0.0 0.0 0.00 0.00 0.00 65 1015.2
20260507060550 38 111 0.0 0.0 0.00 0.00 0.00 66 1015.2
20260507060047 38 194 0.0 0.0 0.00 0.00 0.00 65 1015.2
20260507055546 39 194 0.0 0.0 0.00 0.00 0.00 65 1015.1
20260507055045 39 194 0.0 0.0 0.00 0.00 0.00 65 1015.0
20260507054548 39 194 0.0 1.7 0.00 0.00 0.00 65 1015.0
20260507054045 39 194 0.0 1.7 0.00 0.00 0.00 66 1015.1
20260507053544 39 167 0.0 0.9 0.00 0.00 0.00 65 1014.7
20260507053044 39 167 0.0 2.6 0.00 0.00 0.00 63 1014.6
20260507052548 39 167 0.9 2.6 0.00 0.00 0.00 63 1014.7
20260507052043 40 223 0.0 0.9 0.00 0.00 0.00 62 1014.7
20260507051543 40 223 0.0 0.9 0.00 0.00 0.00 61 1014.7
20260507051042 40 223 0.0 0.0 0.00 0.00 0.00 59 1014.6
20260507050542 40 223 0.0 0.0 0.00 0.00 0.00 59 1014.6
20260507050042 40 223 0.0 0.0 0.00 0.00 0.00 59 1014.6
20260507045542 40 227 0.0 1.7 0.00 0.00 0.00 57 1014.6
20260507045041 40 227 0.0 2.6 0.00 0.00 0.00 56 1014.6
20260507044543 40 228 0.9 2.6 0.00 0.00 0.00 55 1014.6
20260507044045 40 254 0.0 1.7 0.00 0.00 0.00 59 1014.6
20260507043541 40 254 0.0 1.7 0.00 0.00 0.00 59 1014.6
20260507043041 40 261 0.0 0.9 0.00 0.00 0.00 57 1014.6
20260507042542 41 261 0.0 1.7 0.00 0.00 0.00 57 1014.6
20260507042040 41 261 0.0 1.7 0.00 0.00 0.00 55 1014.6
20260507041540 41 261 0.9 1.7 0.00 0.00 0.00 53 1014.5
20260507041040 41 261 0.0 1.7 0.00 0.00 0.00 54 1014.6
20260507040539 41 261 0.0 6.1 0.00 0.00 0.00 53 1014.6
20260507040039 42 233 1.7 6.1 0.00 0.00 0.00 53 1014.5
20260507035539 42 283 0.9 3.5 0.00 0.00 0.00 53 1014.5
20260507035038 42 284 0.9 2.6 0.00 0.00 0.00 52 1014.5
20260507034540 42 149 0.9 5.2 0.00 0.00 0.00 51 1014.5
20260507034037 42 159 0.0 5.2 0.00 0.00 0.00 50 1014.4
20260507033537 43 180 0.9 6.1 0.00 0.00 0.00 50 1014.4
20260507033037 43 217 1.7 6.1 0.00 0.00 0.00 51 1014.5
20260507032539 43 153 1.7 4.3 0.00 0.00 0.00 50 1014.4
20260507032036 43 213 1.7 5.2 0.00 0.00 0.00 50 1014.4
20260507031537 43 190 0.9 7.0 0.00 0.00 0.00 51 1014.3
20260507031036 43 173 1.7 7.0 0.00 0.00 0.00 48 1014.2
20260507030536 43 202 0.9 7.8 0.00 0.00 0.00 49 1014.2
20260507030035 43 260 0.9 7.8 0.00 0.00 0.00 49 1014.2
20260507025534 43 299 1.7 7.0 0.00 0.00 0.00 49 1014.2
20260507025034 43 280 2.6 7.0 0.00 0.00 0.00 50 1014.2
20260507024537 43 180 0.9 7.0 0.00 0.00 0.00 46 1014.1
20260507024034 43 204 1.7 7.0 0.00 0.00 0.00 48 1014.0
20260507023533 43 257 0.9 7.0 0.00 0.00 0.00 49 1014.0
20260507023035 43 220 1.7 4.3 0.00 0.00 0.00 50 1014.0
20260507022534 43 172 1.7 5.2 0.00 0.00 0.00 48 1014.0
20260507022034 43 163 0.9 4.3 0.00 0.00 0.00 48 1013.9
20260507021533 44 180 1.7 4.3 0.00 0.00 0.00 50 1013.9
20260507021036 44 267 0.9 3.5 0.00 0.00 0.00 49 1013.9
20260507020533 44 239 0.9 4.3 0.00 0.00 0.00 49 1013.9
20260507020041 44 227 1.7 4.3 0.00 0.00 0.00 50 1013.9
20260507015533 44 279 0.9 4.3 0.00 0.00 0.00 50 1013.9
20260507015032 43 244 1.7 6.1 0.00 0.00 0.00 50 1013.9
20260507014531 43 307 0.9 6.1 0.00 0.00 0.00 49 1013.8
20260507014033 43 330 1.7 4.3 0.00 0.00 0.00 48 1013.8
20260507013531 43 267 0.9 4.3 0.00 0.00 0.00 50 1013.9
20260507013046 43 238 1.7 5.2 0.00 0.00 0.00 51 1013.9
20260507012531 44 209 0.9 7.8 0.00 0.00 0.00 51 1013.9
20260507012031 44 214 2.6 10.4 0.00 0.00 0.00 50 1013.8
20260507011533 44 237 1.7 10.4 0.00 0.00 0.00 49 1013.7
20260507011033 44 188 2.6 6.1 0.00 0.00 0.00 49 1013.7
20260507010532 45 226 1.7 5.2 0.00 0.00 0.00 49 1013.7
20260507010036 45 213 1.7 6.1 0.00 0.00 0.00 47 1013.6
20260507005529 44 263 0.9 7.0 0.00 0.00 0.00 50 1013.6
20260507005030 45 211 1.7 7.0 0.00 0.00 0.00 50 1013.6
20260507004529 45 283 1.7 6.1 0.00 0.00 0.00 50 1013.7
20260507004030 44 259 0.9 6.1 0.00 0.00 0.00 49 1013.6
20260507003530 45 232 2.6 5.2 0.00 0.00 0.00 49 1013.6
20260507003028 44 215 0.9 5.2 0.00 0.00 0.00 50 1013.6
20260507002528 44 206 1.7 5.2 0.00 0.00 0.00 48 1013.6
20260507002027 44 235 0.9 7.0 0.00 0.00 0.00 50 1013.6
20260507001531 44 263 1.7 6.1 0.00 0.00 0.00 49 1013.6
20260507001028 44 173 2.6 6.1 0.00 0.00 0.00 50 1013.6
20260507000526 44 232 1.7 4.3 0.00 0.00 0.00 50 1013.7
20260507000026 44 94 1.7 5.2 0.00 0.00 0.00 49 1013.6
20260506235525 45 188 0.9 8.7 0.00 0.00 0.00 49 1013.6
20260506235025 45 271 2.6 8.7 0.00 0.00 0.00 50 1013.6
20260506234534 44 16 0.9 7.0 0.00 0.00 0.00 48 1013.6
20260506234025 45 148 2.6 6.1 0.00 0.00 0.00 46 1013.5
20260506233525 45 153 1.7 7.0 0.00 0.00 0.00 48 1013.5
20260506233036 45 207 0.9 6.1 0.00 0.00 0.00 48 1013.5
20260506232524 46 142 1.7 6.1 0.00 0.00 0.00 46 1013.5
20260506232024 46 237 0.9 6.1 0.00 0.00 0.00 48 1013.5
20260506231528 45 234 2.6 6.1 0.00 0.00 0.00 47 1013.4
20260506231022 45 145 1.7 4.3 0.00 0.00 0.00 49 1013.4
20260506230522 45 233 1.7 7.8 0.00 0.00 0.00 47 1013.5
20260506230026 45 224 2.6 7.8 0.00 0.00 0.00 45 1013.4
20260506225521 45 188 2.6 7.8 0.00 0.00 0.00 44 1013.5
20260506225020 45 198 1.7 6.1 0.00 0.00 0.00 52 1013.4